Ds Blue Wave — A8YK2 — position and weather

sailwx.info

Track history (hours):
 
Tides and Currents Weather Stations Pressure Air Temp Water Temp Dewpoint Dewpoint Depression Visibility Wind Speed Wind Dir Waves Ship Positions

Ds Blue Wave

Last reported at 2014-Jul-22 18:18 UTC. Time now 2014-Jul-24 13:03 UTC.
Position N 34°54' E 139°24'.

Length 129 m; draft 6.5 m.

Type: Cargo ship. MMSI: 636092200.

Date/timePositionNaut miles runAvg speedWind from/ knotsBaromVisibWave heightAir tempDewpointWater temp
2014-Jul-22 18:18N 34°54' E 139°24'911.6
2014-Jul-22 17:33N 34°59' E 139°33'1313.4
2014-Jul-22 16:33N 35°09' E 139°44'1212.0
2014-Jul-22 15:34N 35°21' E 139°42'6 5.8
2014-Jul-22 14:33N 35°26' E 139°41'0 0.0
2014-Jul-22 13:33N 35°26' E 139°41'0 0.0
2014-Jul-22 12:33N 35°26' E 139°41'0 0.0
2014-Jul-22 11:33N 35°26' E 139°41'0 0.0
2014-Jul-22 10:33N 35°26' E 139°41'1 1.1
2014-Jul-22 09:33N 35°26' E 139°42'9 9.1
2014-Jul-22 08:33N 35°32' E 139°51'7 5.8
2014-Jul-22 07:25N 35°37' E 139°46'0 0.0
2014-Jul-22 06:31N 35°37' E 139°46'0 0.0
2014-Jul-22 05:31N 35°37' E 139°46'0 0.0
2014-Jul-22 04:13N 35°37' E 139°46'0 0.0
2014-Jul-22 03:25N 35°37' E 139°46'0 0.0
2014-Jul-22 02:22N 35°37' E 139°46'0 0.0
2014-Jul-22 01:28N 35°37' E 139°46'0 0.0
2014-Jul-21 23:09N 35°37' E 139°46'1 0.9
2014-Jul-21 22:32N 35°37' E 139°46'7 7.6
2014-Jul-21 21:33N 35°31' E 139°52'8 7.6
2014-Jul-21 20:32N 35°25' E 139°47'2 7.7
2014-Jul-21 20:18N 35°23' E 139°46'6 8.4
2014-Jul-21 19:33N 35°17' E 139°45'8 8.1
2014-Jul-21 18:33N 35°09' E 139°46'8 7.6
2014-Jul-21 17:33N 35°02' E 139°43'8 7.8
2014-Jul-21 16:33N 34°58' E 139°35'51512.2
2014-Jul-19 22:18N 35°05' E 129°06'1 0.6
2014-Jul-19 20:14N 35°06' E 129°06'0 0.0
2014-Jul-19 18:32N 35°06' E 129°06'0 0.0
2014-Jul-19 17:26N 35°06' E 129°06'0 0.0
2014-Jul-19 14:29N 35°06' E 129°06'0 0.0
2014-Jul-19 13:32N 35°06' E 129°06'0 0.0
2014-Jul-19 12:17N 35°06' E 129°06'0 0.0
2014-Jul-19 06:23N 35°06' E 129°06'  
2014-Jul-16 11:33N 34°60' E 139°34'1212.3
2014-Jul-16 10:33N 35°09' E 139°44'1111.5
2014-Jul-16 09:33N 35°20' E 139°43'1110.6
2014-Jul-16 08:33N 35°29' E 139°50'9 7.5
2014-Jul-16 07:22N 35°37' E 139°46'0 0.0
2014-Jul-16 06:28N 35°37' E 139°46'0 0.0
2014-Jul-16 05:16N 35°37' E 139°46'0 0.0
2014-Jul-16 04:22N 35°37' E 139°46'0 0.0
2014-Jul-16 03:28N 35°37' E 139°46'0 0.0
2014-Jul-16 02:22N 35°37' E 139°46'0 0.0
2014-Jul-16 01:28N 35°37' E 139°46'0 0.0
2014-Jul-16 00:16N 35°37' E 139°46'0 0.0
2014-Jul-15 23:22N 35°37' E 139°46'0 0.0
2014-Jul-15 22:32N 35°37' E 139°46'2 1.9
2014-Jul-15 21:33N 35°36' E 139°47'4 4.1
2014-Jul-15 20:33N 35°34' E 139°51'0 0.0
2014-Jul-15 19:33N 35°34' E 139°51'0 0.0
2014-Jul-15 18:33N 35°34' E 139°51'0 0.1
2014-Jul-15 17:33N 35°34' E 139°51'0 0.0
2014-Jul-15 16:33N 35°34' E 139°51'0 0.0
2014-Jul-15 15:33N 35°34' E 139°51'0 0.0
2014-Jul-15 14:30N 35°34' E 139°51'0 0.0
2014-Jul-15 13:33N 35°34' E 139°51'0 0.0
2014-Jul-15 12:33N 35°34' E 139°51'0 0.0
2014-Jul-15 11:30N 35°34' E 139°51'0 0.1
2014-Jul-15 10:33N 35°34' E 139°51'0 0.0
2014-Jul-15 09:30N 35°34' E 139°51'0 0.0
2014-Jul-15 08:30N 35°34' E 139°51'0 0.0
2014-Jul-15 07:33N 35°34' E 139°51'0 0.0
2014-Jul-15 06:30N 35°34' E 139°51'7 7.0
2014-Jul-15 05:33N 35°27' E 139°49'6 6.3
2014-Jul-15 04:32N 35°26' E 139°41'0 0.0
2014-Jul-15 03:29N 35°26' E 139°41'0 0.0
2014-Jul-15 02:32N 35°26' E 139°41'0 0.0
2014-Jul-15 01:32N 35°26' E 139°41'0 0.0
2014-Jul-15 00:32N 35°26' E 139°41'0 0.0
2014-Jul-14 23:32N 35°26' E 139°41'2 1.6
2014-Jul-14 22:33N 35°26' E 139°42'8 7.9
2014-Jul-14 21:33N 35°18' E 139°45'1111.0
2014-Jul-14 20:33N 35°07' E 139°46'1110.7
2014-Jul-14 19:33N 34°60' E 139°36'51511.1
2014-Jul-12 21:19N 35°04' E 129°07'2 2.2
2014-Jul-12 20:27N 35°06' E 129°06'0 0.0
2014-Jul-12 19:30N 35°06' E 129°06'0 0.0
2014-Jul-12 18:33N 35°06' E 129°06'  
Track history (hours):
 
Tides and Currents Weather Stations Pressure Air Temp Water Temp Dewpoint Dewpoint Depression Visibility Wind Speed Wind Dir Waves Ship Positions

Ds Blue Wave

Last reported at 2014-Jul-22 18:18 UTC. Time now 2014-Jul-24 13:03 UTC.
Position N 34°54' E 139°24'.

Length 129 m; draft 6.5 m.

Type: Cargo ship. MMSI: 636092200.

Date/timePositionNaut miles runAvg speedWind from/ knotsBaromVisibWave heightAir tempDewpointWater temp
2014-Jul-22 18:18N 34°54' E 139°24'911.6
2014-Jul-22 17:33N 34°59' E 139°33'1313.4
2014-Jul-22 16:33N 35°09' E 139°44'1212.0
2014-Jul-22 15:34N 35°21' E 139°42'6 5.8
2014-Jul-22 14:33N 35°26' E 139°41'0 0.0
2014-Jul-22 13:33N 35°26' E 139°41'0 0.0
2014-Jul-22 12:33N 35°26' E 139°41'0 0.0
2014-Jul-22 11:33N 35°26' E 139°41'0 0.0
2014-Jul-22 10:33N 35°26' E 139°41'1 1.1
2014-Jul-22 09:33N 35°26' E 139°42'9 9.1
2014-Jul-22 08:33N 35°32' E 139°51'7 5.8
2014-Jul-22 07:25N 35°37' E 139°46'0 0.0
2014-Jul-22 06:31N 35°37' E 139°46'0 0.0
2014-Jul-22 05:31N 35°37' E 139°46'0 0.0
2014-Jul-22 04:13N 35°37' E 139°46'0 0.0
2014-Jul-22 03:25N 35°37' E 139°46'0 0.0
2014-Jul-22 02:22N 35°37' E 139°46'0 0.0
2014-Jul-22 01:28N 35°37' E 139°46'0 0.0
2014-Jul-21 23:09N 35°37' E 139°46'1 0.9
2014-Jul-21 22:32N 35°37' E 139°46'7 7.6
2014-Jul-21 21:33N 35°31' E 139°52'8 7.6
2014-Jul-21 20:32N 35°25' E 139°47'2 7.7
2014-Jul-21 20:18N 35°23' E 139°46'6 8.4
2014-Jul-21 19:33N 35°17' E 139°45'8 8.1
2014-Jul-21 18:33N 35°09' E 139°46'8 7.6
2014-Jul-21 17:33N 35°02' E 139°43'8 7.8
2014-Jul-21 16:33N 34°58' E 139°35'51512.2
2014-Jul-19 22:18N 35°05' E 129°06'1 0.6
2014-Jul-19 20:14N 35°06' E 129°06'0 0.0
2014-Jul-19 18:32N 35°06' E 129°06'0 0.0
2014-Jul-19 17:26N 35°06' E 129°06'0 0.0
2014-Jul-19 14:29N 35°06' E 129°06'0 0.0
2014-Jul-19 13:32N 35°06' E 129°06'0 0.0
2014-Jul-19 12:17N 35°06' E 129°06'0 0.0
2014-Jul-19 06:23N 35°06' E 129°06'  
2014-Jul-16 11:33N 34°60' E 139°34'1212.3
2014-Jul-16 10:33N 35°09' E 139°44'1111.5
2014-Jul-16 09:33N 35°20' E 139°43'1110.6
2014-Jul-16 08:33N 35°29' E 139°50'9 7.5
2014-Jul-16 07:22N 35°37' E 139°46'0 0.0
2014-Jul-16 06:28N 35°37' E 139°46'0 0.0
2014-Jul-16 05:16N 35°37' E 139°46'0 0.0
2014-Jul-16 04:22N 35°37' E 139°46'0 0.0
2014-Jul-16 03:28N 35°37' E 139°46'0 0.0
2014-Jul-16 02:22N 35°37' E 139°46'0 0.0
2014-Jul-16 01:28N 35°37' E 139°46'0 0.0
2014-Jul-16 00:16N 35°37' E 139°46'0 0.0
2014-Jul-15 23:22N 35°37' E 139°46'0 0.0
2014-Jul-15 22:32N 35°37' E 139°46'2 1.9
2014-Jul-15 21:33N 35°36' E 139°47'4 4.1
2014-Jul-15 20:33N 35°34' E 139°51'0 0.0
2014-Jul-15 19:33N 35°34' E 139°51'0 0.0
2014-Jul-15 18:33N 35°34' E 139°51'0 0.1
2014-Jul-15 17:33N 35°34' E 139°51'0 0.0
2014-Jul-15 16:33N 35°34' E 139°51'0 0.0
2014-Jul-15 15:33N 35°34' E 139°51'0 0.0
2014-Jul-15 14:30N 35°34' E 139°51'0 0.0
2014-Jul-15 13:33N 35°34' E 139°51'0 0.0
2014-Jul-15 12:33N 35°34' E 139°51'0 0.0
2014-Jul-15 11:30N 35°34' E 139°51'0 0.1
2014-Jul-15 10:33N 35°34' E 139°51'0 0.0
2014-Jul-15 09:30N 35°34' E 139°51'0 0.0
2014-Jul-15 08:30N 35°34' E 139°51'0 0.0
2014-Jul-15 07:33N 35°34' E 139°51'0 0.0
2014-Jul-15 06:30N 35°34' E 139°51'7 7.0
2014-Jul-15 05:33N 35°27' E 139°49'6 6.3
2014-Jul-15 04:32N 35°26' E 139°41'0 0.0
2014-Jul-15 03:29N 35°26' E 139°41'0 0.0
2014-Jul-15 02:32N 35°26' E 139°41'0 0.0
2014-Jul-15 01:32N 35°26' E 139°41'0 0.0
2014-Jul-15 00:32N 35°26' E 139°41'0 0.0
2014-Jul-14 23:32N 35°26' E 139°41'2 1.6
2014-Jul-14 22:33N 35°26' E 139°42'8 7.9
2014-Jul-14 21:33N 35°18' E 139°45'1111.0
2014-Jul-14 20:33N 35°07' E 139°46'1110.7
2014-Jul-14 19:33N 34°60' E 139°36'51511.1
2014-Jul-12 21:19N 35°04' E 129°07'2 2.2
2014-Jul-12 20:27N 35°06' E 129°06'0 0.0
2014-Jul-12 19:30N 35°06' E 129°06'0 0.0
2014-Jul-12 18:33N 35°06' E 129°06'  

Dump ship's entire track history